Wind_Speed
16 15 13 11 11 10 10 11 12 13 15 16 19 20 22 25 26 23 7 12 7 7 5 7 9 6 3 2 4 5 2 4 4 3 6 6 4 3 3 5 4 4 5 6 20
18 16 14 13 12 12 10 11 13 13 14 16 18 20 21 23 24 15 11 9 6 6 4 3 3 3 2 3 1 4 4 7 8 6 11 11 3 8 5 6 4 1 5 12 26
20 18 15 14 13 13 11 12 13 13 13 15 17 19 19 17 6 5 9 19 2 2 3 2 2 1 3 1 3 3 6 5 5 7 9 6 7 4 6 4 6 7 3 7 14
22 19 17 15 15 13 12 12 13 13 13 13 14 17 14 5 5 1 4 16 8 3 4 2 1 1 2 4 3 3 6 6 5 4 4 7 7 7 7 9 7 4 8 8 12
23 20 18 17 17 13 13 13 13 12 12 11 13 15 5 4 10 13 18 7 3 4 2 2 1 1 3 2 4 5 5 7 7 7 6 7 9 10 13 11 11 6 7 12 14
24 21 19 18 16 14 14 13 14 13 11 11 13 13 2 2 9 4 4 10 11 4 4 2 3 3 4 3 2 3 5 8 7 9 6 8 12 3 15 8 10 9 12 14 17
25 22 21 20 16 14 14 15 15 14 12 12 14 7 2 15 12 11 19 22 16 8 4 6 5 2 2 6 1 3 7 9 4 5 6 2 6 5 13 8 11 15 12 13 18
26 24 23 19 16 14 15 16 14 14 14 16 11 2 7 16 16 20 19 18 20 18 16 15 10 5 3 3 7 6 3 6 0 7 8 2 8 9 10 8 13 14 15 10 15
28 25 23 18 16 15 15 15 13 15 16 12 5 3 9 8 9 5 9 7 4 10 8 4 7 6 2 2 5 2 4 5 9 6 6 3 5 9 18 10 10 11 12 13 13
30 27 23 19 16 14 12 13 14 17 4 2 2 3 6 4 4 4 2 2 2 3 2 2 4 3 2 4 6 3 3 4 6 6 16 20 13 6 9 8 8 10 11 11 11
30 28 24 20 16 12 8 5 3 2 4 8 6 4 4 6 5 1 3 5 3 4 4 1 4 8 9 7 6 5 9 10 12 11 17 17 16 13 8 4 6 7 7 9 9
32 29 24 20 15 11 5 2 4 1 6 10 14 12 18 3 5 4 2 3 3 5 3 4 6 8 5 5 7 11 13 15 9 8 6 18 28 6 7 3 3 6 9 12 13
35 31 26 21 14 11 9 8 3 2 3 7 7 7 6 13 10 10 6 3 4 4 4 5 5 2 4 3 6 8 9 11 12 9 7 9 26 9 5 6 8 9 6 9 11
37 33 27 22 9 9 6 14 6 2 3 6 5 7 6 7 5 11 21 7 5 11 7 7 8 10 9 7 6 8 8 12 8 2 4 3 10 4 11 8 7 7 8 8 8
39 35 32 26 8 8 6 18 7 3 5 3 4 7 6 6 2 3 9 4 8 7 7 7 6 4 5 5 7 8 6 5 2 4 4 6 4 3 8 4 2 3 5 6 6
40 39 35 25 6 5 22 19 6 5 8 3 5 5 5 3 2 2 4 4 4 4 2 7 2 3 7 3 4 3 4 4 1 3 6 12 10 19 7 5 4 1 6 8 8
45 43 39 32 9 15 22 8 4 5 3 6 5 5 5 5 3 3 5 5 5 4 3 2 4 4 3 3 2 3 4 3 3 2 9 4 6 16 3 4 4 1 5 7 8
46 44 29 27 27 26 16 4 5 7 7 3 4 6 6 6 1 4 3 4 1 4 2 3 5 3 2 3 3 0 4 4 5 5 4 5 6 5 4 5 3 2 5 5 7
49 24 21 19 27 33 8 3 7 5 1 1 1 5 5 2 3 1 0 0 1 3 7 5 4 1 4 4 3 0 3 0 1 2 3 5 6 2 6 4 3 3 5 8 8
26 15 10 21 26 17 5 7 6 4 3 1 5 1 5 2 3 2 1 4 3 5 2 2 4 4 3 4 4 3 2 1 1 4 11 7 6 5 6 6 4 5 6 8 11
18 5 9 21 18 5 6 5 7 1 4 2 2 3 3 3 2 2 3 1 4 2 6 2 3 3 3 2 5 1 2 2 1 4 5 13 6 3 1 3 4 7 7 16 17
6 4 13 16 4 2 4 7 3 1 3 3 3 4 2 3 2 2 4 2 4 2 3 1 3 4 6 5 3 5 6 7 4 6 5 2 9 2 2 3 6 7 10 19 18
3 3 8 4 5 5 7 7 5 5 3 3 3 2 3 2 3 1 2 6 8 3 3 3 0 3 7 2 4 1 2 3 3 1 4 3 4 3 4 7 9 9 11 10 14
4 5 2 2 2 4 6 6 5 8 2 2 3 3 3 3 3 4 2 4 6 4 10 1 4 6 10 7 2 5 8 7 5 4 7 13 18 16 13 9 5 6 7 9 8
3 3 4 7 6 6 5 6 7 6 9 8 2 5 7 5 3 3 1 2 4 6 3 3 3 2 5 7 5 8 14 13 12 12 9 11 16 14 5 6 7 6 6 10 5
5 4 2 7 12 10 11 10 14 10 7 6 7 7 6 5 5 5 5 1 2 5 3 3 2 2 5 3 8 14 14 12 13 12 14 15 11 8 4 5 7 8 8 6 4
3 6 4 11 9 8 10 11 12 9 6 5 12 7 6 6 6 6 4 5 5 4 3 2 3 2 8 6 7 10 13 13 11 14 14 14 10 11 4 5 7 8 6 4 5
Wind_Direction
236 239 244 248 255 264 281 298 307 319 330 333 334 334 334 332 325 325 265 276 255 278 254 256 289 298 290 211 173 136 315 258 261 269 251 293 298 282 267 270 326 152 159 222 159
234 239 243 249 256 264 281 299 312 322 329 332 334 334 335 333 328 296 346 312 253 269 247 240 279 357 310 268 133 140 172 242 197 238 281 293 321 293 306 300 301 22 33 128 146
234 237 241 245 254 265 281 298 308 318 327 332 334 334 335 335 345 249 43 25 358 268 266 278 280 222 237 141 227 196 211 239 243 238 266 287 301 228 261 295 286 295 175 161 160
232 235 239 243 250 261 279 293 304 314 322 329 336 336 341 348 293 340 301 331 334 293 318 327 1 209 236 234 228 248 243 249 261 265 314 296 283 294 219 249 258 261 202 167 186
231 233 237 241 250 263 277 288 297 307 319 327 337 345 2 23 252 265 295 291 241 346 310 326 252 226 241 266 319 234 266 309 297 292 266 260 259 262 279 273 286 283 198 196 203
229 231 234 239 250 263 276 285 293 301 307 316 332 343 56 260 256 257 237 300 303 268 228 183 228 197 261 258 196 298 301 289 303 292 255 273 293 56 297 280 284 269 211 211 210
228 228 231 236 247 261 273 282 288 294 297 307 320 331 209 242 258 272 278 281 273 250 214 227 197 145 337 320 226 271 317 311 245 262 287 270 320 283 284 293 282 287 267 216 215
227 226 230 236 245 258 273 281 287 289 296 306 308 275 244 269 288 277 276 274 258 253 243 258 216 162 181 273 344 341 331 307 145 334 279 139 285 281 294 295 285 285 288 266 232
224 223 227 233 242 256 273 283 287 288 294 294 277 208 263 296 276 289 235 223 189 217 235 209 137 156 187 130 352 341 250 256 308 227 273 159 303 310 305 297 291 297 312 347 352
221 221 222 227 238 254 272 287 292 288 258 205 242 321 256 262 302 298 161 227 187 104 54 117 74 139 62 112 226 234 223 264 257 286 316 302 290 270 290 299 307 4 9 14 10
217 217 218 224 232 244 269 309 329 260 217 205 193 241 283 307 292 82 20 6 112 87 171 245 125 206 208 198 231 282 273 262 272 283 300 290 287 300 269 340 46 18 6 19 22
214 212 215 219 221 226 232 213 229 215 298 237 245 252 254 35 313 272 263 155 144 199 149 31 229 233 200 193 216 243 261 272 274 258 282 296 288 291 253 140 84 50 29 11 360
212 210 209 208 204 214 204 222 179 297 279 273 211 227 227 174 230 232 171 157 162 175 183 184 236 195 222 255 269 263 253 267 269 284 262 290 288 244 49 122 70 44 31 31 25
208 208 200 187 180 192 211 207 184 218 307 272 232 251 175 157 248 190 190 156 194 202 190 228 238 224 252 242 220 277 231 251 268 305 274 175 293 234 236 100 51 25 4 350 2
205 202 194 189 150 172 192 162 150 89 290 219 182 151 147 174 322 181 161 98 189 186 139 227 179 195 200 200 175 233 230 267 244 210 299 190 247 298 103 168 173 17 345 339 343
203 197 185 178 167 167 150 134 125 82 242 249 143 171 150 242 294 135 157 113 166 183 209 227 275 208 207 193 207 266 259 274 258 135 249 244 212 271 234 203 155 6 344 334 323
202 191 183 180 172 160 145 117 99 188 279 191 183 168 176 184 213 210 169 188 164 151 226 243 224 211 148 157 79 87 78 310 309 185 244 152 217 240 136 61 116 97 334 304 296
200 183 170 170 162 154 140 96 189 191 230 37 133 146 178 169 220 213 199 223 32 80 112 203 309 172 93 112 146 87 165 179 238 253 285 337 255 281 96 117 126 226 259 292 315
170 154 156 165 160 156 141 189 194 223 241 171 61 143 208 103 132 91 132 108 161 172 188 182 257 348 78 122 130 113 196 6 287 261 278 243 279 258 162 195 183 297 335 318 316
140 136 143 163 159 154 171 187 197 280 277 239 193 173 165 116 97 96 86 341 52 29 40 25 305 283 46 89 52 162 130 95 76 260 257 247 246 255 225 228 208 271 290 295 312
125 97 147 157 134 144 194 180 191 19 38 24 97 100 99 128 114 122 119 108 25 46 69 98 120 268 41 188 169 108 172 105 212 172 243 269 260 313 311 307 249 257 291 328 312
119 107 157 157 115 173 168 175 126 279 357 44 93 65 119 135 116 173 160 63 353 160 155 52 139 244 225 276 203 200 221 180 169 258 230 202 253 223 181 211 220 250 286 288 301
88 97 161 94 159 175 182 146 153 154 211 151 132 102 59 134 131 210 123 15 14 68 117 177 37 351 310 0 44 227 256 141 128 88 215 252 262 199 241 245 247 253 254 276 299
116 122 126 229 200 161 142 148 145 202 242 218 122 113 111 132 31 148 103 21 354 42 49 92 176 180 248 271 104 287 292 285 249 241 262 252 279 289 295 311 310 306 293 293 280
91 157 178 175 183 134 116 142 163 198 203 183 104 180 154 142 115 133 79 23 28 1 64 94 199 219 280 312 319 284 275 283 275 265 259 279 277 284 248 263 255 274 301 305 305
130 150 93 146 135 137 170 188 188 203 169 184 145 138 124 140 166 175 137 145 224 11 62 36 250 146 274 216 260 270 274 271 274 281 257 257 284 264 260 287 287 284 285 291 313
70 67 94 152 154 157 181 174 181 141 13 143 135 107 110 147 132 134 142 162 171 151 178 166 167 159 263 277 285 274 250 258 257 268 275 281 260 259 273 276 295 288 269 267 282
Height
798 798 799 800 800 800 800 800 800 798 796 795 792 790 786 782 778 775 771 765 765 765 766 766 767 768 768 769 770 774 798 809 798 788 777 758 760 746 738 743 736 736 737 735 736
794 796 797 798 799 799 798 799 799 797 795 793 791 789 785 781 777 772 767 761 763 764 765 765 767 766 772 770 772 781 800 790 779 772 768 758 761 756 749 746 741 736 737 735 736
791 793 794 796 797 797 797 798 798 796 794 792 790 788 784 780 777 768 765 764 764 765 765 765 765 767 773 771 771 776 787 773 769 765 761 761 758 750 752 755 744 743 741 740 737
788 789 791 793 794 795 796 796 797 795 793 791 788 787 783 781 790 765 764 764 764 765 765 764 766 770 775 777 770 779 770 767 763 757 758 761 752 753 750 748 737 736 735 737 739
784 785 788 790 791 793 794 794 795 793 792 790 788 786 784 784 774 763 762 762 762 763 765 766 769 771 778 773 772 774 769 764 759 761 760 756 757 752 745 740 735 735 735 733 732
779 782 785 787 789 790 791 791 792 792 791 789 788 787 787 789 762 762 762 761 761 762 762 764 766 766 772 773 775 767 768 767 760 758 756 755 749 748 738 736 734 731 730 727 725
775 778 781 784 786 787 789 790 789 790 789 787 787 785 786 773 758 759 760 758 760 760 759 760 763 767 768 773 765 765 773 767 758 754 754 748 757 752 738 733 731 723 720 720 717
772 774 778 781 783 784 786 787 786 787 787 786 785 785 778 757 755 751 753 753 755 756 758 756 757 764 769 766 770 775 774 782 755 753 747 750 765 745 736 735 730 722 715 712 710
767 770 774 778 780 781 784 784 783 783 784 784 783 784 772 755 753 746 747 749 750 752 754 754 755 763 767 778 789 785 792 785 771 751 754 754 761 745 733 731 730 722 717 718 718
762 766 771 774 777 779 781 782 780 780 780 782 782 786 761 753 750 748 746 748 749 751 754 755 763 771 781 787 800 791 792 782 778 757 752 752 754 746 735 731 730 734 733 731 728
756 763 767 771 774 777 780 780 782 782 778 768 766 762 754 750 749 748 748 747 748 753 767 761 774 775 771 776 773 775 778 784 771 762 754 748 745 740 734 732 741 740 739 733 728
752 758 763 768 772 776 778 779 775 777 775 760 760 759 751 752 756 749 749 752 754 765 763 773 777 763 759 764 771 771 774 774 765 758 757 750 731 737 731 747 742 741 742 740 735
748 754 758 765 770 774 773 774 774 774 776 756 750 748 746 749 747 744 748 749 756 763 767 775 764 755 762 766 770 771 773 770 770 761 757 756 728 736 744 742 744 746 747 743 740
743 750 754 761 772 769 769 770 773 774 783 759 747 738 738 740 745 732 738 746 754 759 764 767 755 757 763 769 767 776 760 759 763 768 782 755 760 740 729 747 752 752 751 749 743
736 744 749 757 759 764 763 767 772 773 788 740 739 731 734 741 734 733 732 740 753 752 756 756 753 756 760 758 755 763 751 755 756 767 770 766 778 741 742 751 754 753 750 748 743
729 737 743 752 757 758 761 765 771 790 782 741 732 737 741 737 734 731 735 735 739 748 747 749 742 747 749 745 748 747 753 757 759 769 781 749 761 729 734 739 751 752 752 750 745
720 729 737 743 752 756 762 764 784 780 738 736 737 735 737 741 739 736 741 745 751 760 760 748 747 741 740 749 751 753 765 785 782 781 764 744 754 728 745 747 748 751 752 750 747
713 724 732 738 746 752 761 769 771 753 742 726 727 734 742 737 737 737 742 749 743 748 762 761 764 744 744 750 756 758 763 782 781 770 768 757 756 739 749 750 751 752 749 745 742
705 725 733 736 741 748 756 764 747 748 733 733 729 737 739 738 740 740 743 749 748 747 760 766 763 745 745 747 751 760 767 765 773 773 777 760 744 745 747 749 750 752 749 746 738
709 725 733 736 739 744 752 747 748 737 734 732 734 732 743 745 748 747 745 753 751 750 748 757 767 752 749 749 755 756 759 773 780 779 767 751 746 745 747 748 752 753 751 744 737
709 723 734 736 738 743 748 751 740 736 735 736 741 740 744 749 749 751 751 753 751 753 753 756 768 765 756 756 761 766 769 773 781 793 779 756 750 751 745 749 753 754 748 745 740
707 724 732 736 745 752 749 741 742 742 737 741 742 745 745 748 752 753 752 753 752 749 756 759 775 784 768 757 757 759 763 773 796 796 784 784 750 748 749 752 752 747 748 746 734
711 728 735 736 739 741 741 743 746 749 745 743 747 744 748 753 759 756 754 763 757 756 760 764 788 800 769 767 762 764 762 771 783 795 788 780 761 750 752 751 747 745 739 734 728
707 721 741 742 739 737 736 741 749 744 746 742 746 748 755 756 757 763 764 769 766 762 764 762 778 779 776 766 776 776 768 768 774 784 774 766 758 751 745 744 744 741 736 731 725
699 713 713 728 732 734 733 739 747 748 742 741 748 745 749 761 765 770 772 773 773 771 771 772 785 778 774 773 776 776 771 770 772 767 773 761 754 749 752 748 744 737 733 728 726
700 706 711 714 721 732 738 742 744 739 738 742 746 747 749 759 759 773 772 775 775 776 773 780 798 791 788 780 777 774 771 769 767 766 758 751 749 747 746 744 742 737 732 726 728
691 697 704 718 726 731 733 729 729 731 738 737 744 753 758 758 761 765 768 773 775 779 780 782 789 793 787 776 778 782 769 765 760 752 749 748 745 742 742 741 740 735 730 726 723